SES-4                   
1 38087U 12007A   19261.33795685 -.00000172  00000-0  00000+0 0  9991
2 38087   0.0073 129.1214 0002319  57.0798 270.4289  1.00272825 27782
BREEZE-M R/B            
1 38088U 12007B   19261.06296378 -.00000030  00000-0  00000+0 0  9990
2 38088  24.5385 229.0448 6229033 269.0546 333.7990  2.22074350 61558
BREEZE-M DEB [TANK]     
1 38089U 12007C   19260.28614414  .00000168  00000-0  71492-4 0  9998
2 38089  49.5988 310.2590 5033997 140.8337 269.4147  5.52673550151654